* Astronomy

Members Login
Username 
 
Password 
    Remember Me  
Post Info TOPIC: Asteroid 2012 BW13


L

Posts: 131433
Date:
Asteroid 2012 BW13
Permalink  
 


Orbital elements:
2012 BW13                                                Earth MOID = 0.0015 AU
Epoch 2012 Mar. 14.0 TT = JDT 2456000.5                 MPC
M   4.66115              (2000.0)            P               Q
n   0.36733019     Peri.  224.15836     -0.99545291     -0.09408054
a   1.9309231      Node   310.43721     +0.09192207     -0.90773059
e   0.5515810      Incl.    1.12261     +0.02497687     -0.40886920
P   2.68           H   27.1           G   0.15           U   8

MPEC 2012 - B34

The 10 - 23 metre wide asteroid 2012 BW13 will make a close pass (1.7 lunar distances, 0.0044 AU), travelling at 11.92 km/second, to the Earth-Moon system on the 26th January, 2012 @ 05:22 UT ±01:03.

See more

The Lunar Distance (LD), the distance between Earth and the Moon, equals 384,401 km, (or 0.00256 AU).



__________________
Page 1 of 1  sorted by
 
Quick Reply

Please log in to post quick replies.



Create your own FREE Forum
Report Abuse
Powered by ActiveBoard